����,���ϕ���(m/s),���ϕ���,�ő�u�ԕ���(m/s),�ő啗��������,�C��(��),���x(%),10���Ԉړ��ώZ�J��(mm),1���Ԉړ��ώZ�J��(mm),���J��(mm),�݌v�J��(mm),����(���ώZ)(MJ/m2),����(���ώZ)(min),���n�C��(hPa),�C�ʋC��(hPa)
2024-05-20T00:00:00+09:00,1.7,��,2.6,��,14.4,98.6,0.5,2,2,2,6.86,24,1003.7,1017.6
2024-05-20T00:01:00+09:00,1.7,��,2.6,��,14.4,98.6,0.5,2,0,2,0,0,1003.7,1017.6
2024-05-20T00:02:00+09:00,1.7,��,2.6,��,14.5,98.7,0,2,0,2,0,0,1003.7,1017.6
2024-05-20T00:03:00+09:00,1.7,��,2.6,��,14.5,98.7,0.5,2.5,0.5,2.5,0,0,1003.7,1017.6
2024-05-20T00:04:00+09:00,1.7,��,2.6,��,14.5,98.8,0.5,2.5,0.5,2.5,0,0,1003.6,1017.5
2024-05-20T00:05:00+09:00,1.6,��,2.6,��,14.3,98.6,0.5,2.5,0.5,2.5,0,0,1003.6,1017.5
2024-05-20T00:06:00+09:00,1.5,��,2.4,��,14.3,98.6,0.5,2.5,0.5,2.5,0,0,1003.7,1017.6
2024-05-20T00:07:00+09:00,1.6,��,2.6,���쐼,14.3,98.6,0.5,2.5,0.5,2.5,0,0,1003.7,1017.6
2024-05-20T00:08:00+09:00,1.5,��,2.6,���쐼,14.2,98.6,0.5,2.5,0.5,2.5,0,0,1003.7,1017.6
2024-05-20T00:09:00+09:00,1.5,��,2.6,���쐼,14.3,98.6,0.5,2.5,0.5,2.5,0,0,1003.7,1017.6
2024-05-20T00:10:00+09:00,1.4,��,2.6,���쐼,14.3,98.7,0.5,2.5,0.5,2.5,0,0,1003.7,1017.6
2024-05-20T00:11:00+09:00,1.5,��,2.6,���쐼,14.2,98.7,0.5,2.5,0.5,2.5,0,0,1003.6,1017.5
2024-05-20T00:12:00+09:00,1.6,��,2.7,��,14.3,98.7,0.5,2.5,0.5,2.5,0,0,1003.5,1017.4
2024-05-20T00:13:00+09:00,1.7,��,2.7,��,14.4,98.8,0,2.5,0.5,2.5,0,0,1003.5,1017.4
2024-05-20T00:14:00+09:00,1.7,��,2.7,��,14.3,98.8,0,2.5,0.5,2.5,0,0,1003.5,1017.4
2024-05-20T00:15:00+09:00,1.8,��,2.7,��,14.3,98.7,0,2.5,0.5,2.5,0,0,1003.4,1017.3
2024-05-20T00:16:00+09:00,1.7,��,2.7,��,14.4,98.8,0,2.5,0.5,2.5,0,0,1003.4,1017.3
2024-05-20T00:17:00+09:00,1.7,��,2.7,��,14.4,98.8,0,2.5,0.5,2.5,0,0,1003.4,1017.3
2024-05-20T00:18:00+09:00,1.7,��,2.7,��,14.4,98.9,0,2.5,0.5,2.5,0,0,1003.4,1017.3
2024-05-20T00:19:00+09:00,1.7,��,2.7,��,14.4,98.8,0,2.5,0.5,2.5,0,0,1003.4,1017.3
2024-05-20T00:20:00+09:00,1.7,��,2.7,��,14.4,98.9,0,2.5,0.5,2.5,0,0,1003.4,1017.3
2024-05-20T00:21:00+09:00,1.7,��,2.7,��,14.4,98.8,0,2.5,0.5,2.5,0,0,1003.4,1017.3
2024-05-20T00:22:00+09:00,1.7,��,2.7,���쐼,14.5,98.8,0,2.5,0.5,2.5,0,0,1003.3,1017.2
2024-05-20T00:23:00+09:00,1.6,��,2.7,���쐼,14.3,98.8,0,2.5,0.5,2.5,0,0,1003.3,1017.2
2024-05-20T00:24:00+09:00,1.5,��,2.5,��,14.3,98.7,0,2.5,0.5,2.5,0,0,1003.3,1017.2
2024-05-20T00:25:00+09:00,1.5,��,2.5,��,14.4,98.8,0,2.5,0.5,2.5,0,0,1003.2,1017.1
2024-05-20T00:26:00+09:00,1.5,��,2.5,��,14.3,98.8,0,2.5,0.5,2.5,0,0,1003.2,1017.1
2024-05-20T00:27:00+09:00,1.5,��,2.5,��,14.5,98.8,0,2.5,0.5,2.5,0,0,1003.2,1017.1
2024-05-20T00:28:00+09:00,1.5,��,2.5,��,14.4,98.9,0,2.5,0.5,2.5,0,0,1003.1,1017
2024-05-20T00:29:00+09:00,1.4,��,2.5,��,14.3,98.8,0,2.5,0.5,2.5,0,0,1003.1,1017
2024-05-20T00:30:00+09:00,1.4,��,2.5,��,14.4,98.8,0,2.5,0.5,2.5,0,0,1003.1,1017
2024-05-20T00:31:00+09:00,1.4,��,2.5,��,14.5,99,0,2.5,0.5,2.5,0,0,1003.1,1017
2024-05-20T00:32:00+09:00,1.3,��,2.5,��,14.4,98.9,0,2.5,0.5,2.5,0,0,1003.1,1017
2024-05-20T00:33:00+09:00,1.3,��,2.5,��,14.6,99,0,2.5,0.5,2.5,0,0,1003.1,1017
2024-05-20T00:34:00+09:00,1.3,��,2.4,��,14.5,99,0,2,0.5,2.5,0,0,1003,1016.9
2024-05-20T00:35:00+09:00,1.4,��,2.4,��,14.4,98.8,0,2,0.5,2.5,0,0,1003,1016.9
2024-05-20T00:36:00+09:00,1.4,��,2.4,���k��,14.4,98.7,0,2,0.5,2.5,0,0,1003,1016.9
2024-05-20T00:37:00+09:00,1.5,��,2.5,���k��,14.4,98.8,0,2,0.5,2.5,0,0,1002.9,1016.8
2024-05-20T00:38:00+09:00,1.6,��,2.5,���k��,14.4,98.8,0,2,0.5,2.5,0,0,1002.9,1016.8
2024-05-20T00:39:00+09:00,1.6,��,2.5,���k��,14.4,98.8,0,2,0.5,2.5,0,0,1002.8,1016.7
2024-05-20T00:40:00+09:00,1.7,���k��,2.5,���k��,14.4,98.7,0,2,0.5,2.5,0,0,1002.8,1016.7
2024-05-20T00:41:00+09:00,1.7,���k��,2.5,���k��,14.4,98.8,0,1.5,0.5,2.5,0,0,1002.7,1016.6
2024-05-20T00:42:00+09:00,1.8,���k��,2.5,���k��,14.5,98.8,0,1.5,0.5,2.5,0,0,1002.8,1016.7
2024-05-20T00:43:00+09:00,1.7,���k��,2.5,���k��,14.6,98.9,0,1.5,0.5,2.5,0,0,1002.8,1016.7
2024-05-20T00:44:00+09:00,1.7,���k��,2.5,���k��,14.6,98.8,0,1.5,0.5,2.5,0,0,1002.8,1016.7
2024-05-20T00:45:00+09:00,1.6,���k��,2.5,���k��,14.6,98.7,0,1.5,0.5,2.5,0,0,1002.8,1016.7
2024-05-20T00:46:00+09:00,1.4,���k��,2.5,���k��,14.5,98.7,0,1,0.5,2.5,0,0,1002.8,1016.7
2024-05-20T00:47:00+09:00,1.3,���k��,2.4,���k��,14.6,98.7,0,1,0.5,2.5,0,0,1002.8,1016.7
2024-05-20T00:48:00+09:00,1.1,�k��,2.4,���k��,14.6,98.7,0,1,0.5,2.5,0,0,1002.7,1016.6
2024-05-20T00:49:00+09:00,1,�k��,2.2,���k��,14.7,98.7,0,1,0.5,2.5,0,0,1002.7,1016.6
2024-05-20T00:50:00+09:00,0.8,�k��,1.8,���k��,14.8,98.8,0,1,0.5,2.5,0,0,1002.6,1016.5
2024-05-20T00:51:00+09:00,0.7,�k��,1.7,�k��,14.7,98.7,0,1,0.5,2.5,0,0,1002.6,1016.5
2024-05-20T00:52:00+09:00,0.6,�k�k��,1.5,�k��,14.5,98.5,0,0.5,0.5,2.5,0,0,1002.5,1016.4
2024-05-20T00:53:00+09:00,0.5,�k�k��,1.4,��,14.6,98.5,0,0.5,0.5,2.5,0,0,1002.5,1016.4
2024-05-20T00:54:00+09:00,0.4,�k�k��,1.3,���k��,14.7,98.6,0,0.5,0.5,2.5,0,0,1002.5,1016.4
2024-05-20T00:55:00+09:00,0.4,�k,1.1,��,14.6,98.7,0,0.5,0.5,2.5,0,0,1002.4,1016.3
2024-05-20T00:56:00+09:00,0.4,�k,1.1,��,14.7,98.6,0,0.5,0.5,2.5,0,0,1002.3,1016.2
2024-05-20T00:57:00+09:00,0.4,�k,1.4,�k��,14.7,98.7,0,0.5,0.5,2.5,0,0,1002.3,1016.2
2024-05-20T00:58:00+09:00,0.5,�k�k��,1.4,�k��,14.8,98.7,0,0.5,0.5,2.5,0,0,1002.3,1016.2
2024-05-20T00:59:00+09:00,0.5,�k�k��,1.4,�k��,14.7,98.7,0.5,1,1,3,0,0,1002.2,1016.1
2024-05-20T01:00:00+09:00,0.6,�k�k��,1.4,�k��,14.8,98.7,0.5,1,1,3,0,0,1002.2,1016.1
2024-05-20T01:01:00+09:00,0.6,�k�k��,1.4,�k��,14.8,98.7,0.5,1,1,3,0,0,1002.1,1016
2024-05-20T01:02:00+09:00,0.7,�k�k��,1.4,�k��,14.8,98.7,0.5,1,1,3,0,0,1002,1015.9
2024-05-20T01:03:00+09:00,0.7,�k�k��,1.4,�k��,14.7,98.7,0.5,0.5,1,3,0,0,1002,1015.9
2024-05-20T01:04:00+09:00,0.8,�k��,1.4,�k��,14.8,98.8,0.5,0.5,1,3,0,0,1001.9,1015.8
2024-05-20T01:05:00+09:00,0.8,�k�k��,1.4,�k��,14.8,98.8,0.5,0.5,1,3,0,0,1001.9,1015.8
2024-05-20T01:06:00+09:00,0.8,�k�k��,1.5,�k�k��,14.8,98.8,0.5,0.5,1,3,0,0,1001.9,1015.8
2024-05-20T01:07:00+09:00,0.8,�k�k��,1.5,�k�k��,14.9,98.7,0.5,0.5,1,3,0,0,1001.9,1015.8
2024-05-20T01:08:00+09:00,0.8,�k�k��,1.5,�k�k��,14.9,98.8,0.5,0.5,1,3,0,0,1001.9,1015.8
2024-05-20T01:09:00+09:00,0.8,�k�k��,1.5,�k�k��,14.7,98.7,0,0.5,1,3,0,0,1001.8,1015.7
2024-05-20T01:10:00+09:00,0.7,�k�k��,1.5,�k�k��,14.8,98.6,0,0.5,1,3,0,0,1001.9,1015.8
2024-05-20T01:11:00+09:00,0.8,�k�k��,1.5,�k�k��,14.8,98.8,0,0.5,1,3,0,0,1001.8,1015.7
2024-05-20T01:12:00+09:00,0.7,�k�k��,1.5,�k�k��,14.7,98.7,0,0.5,1,3,0,0,1001.8,1015.7
2024-05-20T01:13:00+09:00,0.7,�k�k��,1.5,�k�k��,14.7,98.7,0,0.5,1,3,0,0,1001.7,1015.6
2024-05-20T01:14:00+09:00,0.8,�k�k��,1.5,�k�k��,14.7,98.7,0,0.5,1,3,0,0,1001.7,1015.6
2024-05-20T01:15:00+09:00,0.8,�k�k��,1.5,�k�k��,14.9,98.8,0,0.5,1,3,0,0,1001.7,1015.5
2024-05-20T01:16:00+09:00,0.8,�k��,1.4,�k,14.9,98.9,0,0.5,1,3,0,0,1001.7,1015.5
2024-05-20T01:17:00+09:00,0.8,�k��,1.2,�k��,14.7,98.7,0.5,1,1.5,3.5,0,0,1001.6,1015.5
2024-05-20T01:18:00+09:00,0.7,�k��,1.2,�k��,14.7,98.6,0.5,1,1.5,3.5,0,0,1001.6,1015.5
2024-05-20T01:19:00+09:00,0.7,�k��,1.2,�k��,14.7,98.8,0.5,1,1.5,3.5,0,0,1001.5,1015.4
2024-05-20T01:20:00+09:00,0.7,�k��,1.2,�k��,14.8,98.7,0.5,1,1.5,3.5,0,0,1001.5,1015.3
2024-05-20T01:21:00+09:00,0.7,�k��,1.2,�k��,14.8,98.8,0.5,1,1.5,3.5,0,0,1001.5,1015.3
2024-05-20T01:22:00+09:00,0.7,�k��,1.2,�k��,14.7,98.8,0.5,1,1.5,3.5,0,0,1001.5,1015.4
2024-05-20T01:23:00+09:00,0.6,�k��,1.1,�k,14.6,98.6,0.5,1,1.5,3.5,0,0,1001.5,1015.4
2024-05-20T01:24:00+09:00,0.5,�k��,1.1,�k,14.5,98.6,0.5,1,1.5,3.5,0,0,1001.5,1015.4
2024-05-20T01:25:00+09:00,0.4,�k��,1.1,�k,14.6,98.6,0.5,1,1.5,3.5,0,0,1001.5,1015.4
2024-05-20T01:26:00+09:00,0.4,�k��,1.1,�k,14.4,98.5,0.5,1,1.5,3.5,0,0,1001.5,1015.4
2024-05-20T01:27:00+09:00,0.3,�k��,1.1,�k,14.5,98.5,0.5,1.5,2,4,0,0,1001.6,1015.5
2024-05-20T01:28:00+09:00,0.3,�k��,1.1,�k,14.5,98.6,0.5,1.5,2,4,0,0,1001.6,1015.5
2024-05-20T01:29:00+09:00,0.2,�É�,1.1,�k,14.5,98.6,0.5,1.5,2,4,0,0,1001.5,1015.4
2024-05-20T01:30:00+09:00,0.2,�É�,1.1,�k,14.4,98.6,0.5,1.5,2,4,0,0,1001.5,1015.4
2024-05-20T01:31:00+09:00,0.2,�É�,0.7,���k��,14.6,98.7,0.5,1.5,2,4,0,0,1001.5,1015.4
2024-05-20T01:32:00+09:00,0.2,�É�,0.7,���k��,14.8,98.9,0.5,1.5,2,4,0,0,1001.6,1015.5
2024-05-20T01:33:00+09:00,0.1,�É�,0.7,���k��,14.6,98.8,0.5,1.5,2,4,0,0,1001.5,1015.4
2024-05-20T01:34:00+09:00,0.2,�É�,0.8,���k��,14.5,98.8,0.5,1.5,2,4,0,0,1001.5,1015.4
2024-05-20T01:35:00+09:00,0.2,�É�,1.1,��,14.6,98.7,0.5,1.5,2,4,0,0,1001.5,1015.4
2024-05-20T01:36:00+09:00,0.3,���k��,1.1,��,14.6,98.8,0.5,1.5,2,4,0,0,1001.4,1015.3
2024-05-20T01:37:00+09:00,0.3,���k��,1.1,��,14.6,98.8,0,1.5,2,4,0,0,1001.4,1015.3
2024-05-20T01:38:00+09:00,0.3,���k��,1.1,��,14.6,98.8,0,1.5,2,4,0,0,1001.4,1015.3
2024-05-20T01:39:00+09:00,0.3,���k��,1.1,��,14.6,98.8,0,1.5,2,4,0,0,1001.3,1015.2
2024-05-20T01:40:00+09:00,0.4,���k��,1.1,��,14.7,98.9,0.5,2,2.5,4.5,0,0,1001.3,1015.2
2024-05-20T01:41:00+09:00,0.4,���k��,1.1,��,14.7,98.8,0.5,2,2.5,4.5,0,0,1001.3,1015.2
2024-05-20T01:42:00+09:00,0.4,��,1.3,��,14.5,98.9,0.5,2,2.5,4.5,0,0,1001.2,1015.1
2024-05-20T01:43:00+09:00,0.5,���k��,1.3,��,14.4,98.7,0.5,2,2.5,4.5,0,0,1001.2,1015.1
2024-05-20T01:44:00+09:00,0.5,���k��,1.3,��,14.4,98.6,0.5,2,2.5,4.5,0,0,1001.2,1015.1
2024-05-20T01:45:00+09:00,0.5,���k��,1.3,��,14.4,98.7,0.5,2,2.5,4.5,0,0,1001.3,1015.2
2024-05-20T01:46:00+09:00,0.5,���k��,1.4,���k��,14.4,98.6,0.5,2,2.5,4.5,0,0,1001.2,1015.1
2024-05-20T01:47:00+09:00,0.5,���k��,1.4,���k��,14.3,98.7,0.5,2,2.5,4.5,0,0,1001.2,1015.1
2024-05-20T01:48:00+09:00,0.6,��,1.4,���k��,14.3,98.6,0.5,2,2.5,4.5,0,0,1001.2,1015.1
2024-05-20T01:49:00+09:00,0.7,��,1.4,���k��,14.4,98.7,0.5,2,2.5,4.5,0,0,1001.2,1015.1
2024-05-20T01:50:00+09:00,0.7,��,1.4,���k��,14.5,98.7,0,2,2.5,4.5,0,0,1001.2,1015.1
2024-05-20T01:51:00+09:00,0.7,���k��,1.6,���k��,14.5,98.8,0,2,2.5,4.5,0,0,1001.2,1015.1
2024-05-20T01:52:00+09:00,0.7,���k��,1.6,���k��,14.5,98.8,0,2,2.5,4.5,0,0,1001.3,1015.2
2024-05-20T01:53:00+09:00,0.7,���k��,1.6,���k��,14.4,98.6,0,2,2.5,4.5,0,0,1001.2,1015.1
2024-05-20T01:54:00+09:00,0.7,��,1.6,���k��,14.5,98.6,0,2,2.5,4.5,0,0,1001.2,1015.1
2024-05-20T01:55:00+09:00,0.7,���k��,1.6,���k��,14.5,98.7,0,2,2.5,4.5,0,0,1001.2,1015.1
2024-05-20T01:56:00+09:00,0.7,��,1.6,���k��,14.4,98.6,0,2,2.5,4.5,0,0,1001.2,1015.1
2024-05-20T01:57:00+09:00,0.6,���k��,1.6,���k��,14.3,98.6,0,2,2.5,4.5,0,0,1001.2,1015.1
2024-05-20T01:58:00+09:00,0.6,��,1.6,���k��,14.4,98.7,0,2,2.5,4.5,0,0,1001.1,1015
2024-05-20T01:59:00+09:00,0.6,��,1.6,���k��,14.3,98.5,0,1.5,2.5,4.5,0,0,1001.1,1015
2024-05-20T02:00:00+09:00,0.6,��,1.6,���k��,14.3,98.6,0,1.5,2.5,4.5,0,0,1001.1,1015
2024-05-20T02:01:00+09:00,0.6,��,1.6,���k��,14.5,98.6,0,1.5,2.5,4.5,0,0,1001.1,1015
2024-05-20T02:02:00+09:00,0.6,��,1.5,��,14.4,98.6,0,1.5,2.5,4.5,0,0,1001.1,1015
2024-05-20T02:03:00+09:00,0.6,��,1.5,��,14.3,98.5,0,1.5,2.5,4.5,0,0,1001.1,1015
2024-05-20T02:04:00+09:00,0.7,��,1.6,���쐼,14.2,98.5,0,1.5,2.5,4.5,0,0,1001,1014.9
2024-05-20T02:05:00+09:00,0.7,��,1.6,���쐼,14.3,98.5,0,1.5,2.5,4.5,0,0,1001,1014.9
2024-05-20T02:06:00+09:00,0.7,��,1.6,���쐼,14.3,98.6,0,1.5,2.5,4.5,0,0,1001,1014.9
2024-05-20T02:07:00+09:00,0.7,���쐼,1.6,���쐼,14.4,98.6,0,1.5,2.5,4.5,0,0,1000.9,1014.8
2024-05-20T02:08:00+09:00,0.7,��,1.6,���쐼,14.2,98.5,0,1.5,2.5,4.5,0,0,1000.9,1014.8
2024-05-20T02:09:00+09:00,0.8,��,1.6,���쐼,14.3,98.5,0,1.5,2.5,4.5,0,0,1000.8,1014.7
2024-05-20T02:10:00+09:00,0.8,��,1.6,���쐼,14.4,98.6,0,1.5,2.5,4.5,0,0,1000.8,1014.7
2024-05-20T02:11:00+09:00,0.8,��,1.6,���쐼,14.4,98.7,0,1.5,2.5,4.5,0,0,1000.8,1014.7
2024-05-20T02:12:00+09:00,0.7,���쐼,1.6,���쐼,14.4,98.6,0,1.5,2.5,4.5,0,0,1000.9,1014.8
2024-05-20T02:13:00+09:00,0.8,��,1.6,���쐼,14.5,98.6,0,1.5,2.5,4.5,0,0,1000.9,1014.8
2024-05-20T02:14:00+09:00,0.7,���쐼,1.4,���쐼,14.3,98.7,0,1.5,2.5,4.5,0,0,1000.9,1014.8
2024-05-20T02:15:00+09:00,0.8,���쐼,1.6,���쐼,14.3,98.6,0,1.5,2.5,4.5,0,0,1000.9,1014.8
2024-05-20T02:16:00+09:00,0.9,���쐼,1.7,���쐼,14.2,98.4,0,1.5,2.5,4.5,0,0,1000.9,1014.8
2024-05-20T02:17:00+09:00,0.9,���쐼,1.7,���쐼,14.3,98.4,0,1,2.5,4.5,0,0,1000.9,1014.8
2024-05-20T02:18:00+09:00,1,���쐼,1.7,���쐼,14.3,98.5,0,1,2.5,4.5,0,0,1000.9,1014.8
2024-05-20T02:19:00+09:00,1,���쐼,1.8,�쐼,14.2,98.5,0,1,2.5,4.5,0,0,1000.9,1014.8
2024-05-20T02:20:00+09:00,1,���쐼,1.8,�쐼,14.2,98.4,0,1,2.5,4.5,0,0,1000.9,1014.8
2024-05-20T02:21:00+09:00,1.1,���쐼,1.8,�쐼,14.4,98.5,0,1,2.5,4.5,0,0,1000.9,1014.8
2024-05-20T02:22:00+09:00,1.1,���쐼,1.8,�쐼,14.3,98.4,0,1,2.5,4.5,0,0,1000.9,1014.8
2024-05-20T02:23:00+09:00,1.1,���쐼,1.8,�쐼,14.2,98.3,0,1,2.5,4.5,0,0,1001,1014.9
2024-05-20T02:24:00+09:00,1.1,���쐼,1.8,�쐼,14.4,98.3,0,1,2.5,4.5,0,0,1001,1014.9
2024-05-20T02:25:00+09:00,1.1,���쐼,1.8,�쐼,14.4,98.5,0,1,2.5,4.5,0,0,1001,1014.9
2024-05-20T02:26:00+09:00,1,���쐼,1.8,�쐼,14.4,98.5,0,1,2.5,4.5,0,0,1001,1014.9
2024-05-20T02:27:00+09:00,1.1,���쐼,1.8,�쐼,14.3,98.4,0,0.5,2.5,4.5,0,0,1000.9,1014.8
2024-05-20T02:28:00+09:00,1,���쐼,1.8,�쐼,14.5,98.5,0,0.5,2.5,4.5,0,0,1001,1014.9
2024-05-20T02:29:00+09:00,1,���쐼,1.7,���쐼,14.3,98.3,0,0.5,2.5,4.5,0,0,1001,1014.9
2024-05-20T02:30:00+09:00,1,���쐼,1.7,���쐼,14.3,98.2,0,0.5,2.5,4.5,0,0,1001,1014.9
2024-05-20T02:31:00+09:00,0.9,�쐼,1.7,���쐼,14.3,98.3,0,0.5,2.5,4.5,0,0,1001,1014.9
2024-05-20T02:32:00+09:00,0.8,�쐼,1.7,���쐼,14.3,98.3,0,0.5,2.5,4.5,0,0,1001,1014.9
2024-05-20T02:33:00+09:00,0.8,�쐼,1.7,���쐼,14.3,98.3,0,0.5,2.5,4.5,0,0,1001,1014.9
2024-05-20T02:34:00+09:00,0.7,�쐼,1.7,���쐼,14.3,98.3,0,0.5,2.5,4.5,0,0,1001,1014.9
2024-05-20T02:35:00+09:00,0.7,�쐼,1.7,���쐼,14.5,98.5,0,0.5,2.5,4.5,0,0,1001,1014.9
2024-05-20T02:36:00+09:00,0.7,�쐼,1.7,���쐼,14.4,98.5,0,0.5,2.5,4.5,0,0,1001,1014.9
2024-05-20T02:37:00+09:00,0.7,�쐼,1.5,��,14.3,98.3,0,0.5,2.5,4.5,0,0,1000.9,1014.8
2024-05-20T02:38:00+09:00,0.6,�쐼,1.3,���쐼,14.4,98.5,0,0.5,2.5,4.5,0,0,1000.8,1014.7
2024-05-20T02:39:00+09:00,0.6,�쐼,1.2,��쐼,14.5,98.5,0,0.5,2.5,4.5,0,0,1000.8,1014.7
2024-05-20T02:40:00+09:00,0.6,�쐼,1.2,��쐼,14.5,98.5,0,0,2.5,4.5,0,0,1000.8,1014.7
2024-05-20T02:41:00+09:00,0.6,���쐼,1.1,�쐼,14.6,98.5,0,0,2.5,4.5,0,0,1000.8,1014.6
2024-05-20T02:42:00+09:00,0.6,���쐼,1.1,�쐼,14.6,98.6,0,0,2.5,4.5,0,0,1000.8,1014.6
2024-05-20T02:43:00+09:00,0.6,���쐼,1,���k��,14.4,98.4,0,0,2.5,4.5,0,0,1000.8,1014.7
2024-05-20T02:44:00+09:00,0.6,���쐼,1.2,�쐼,14.4,98.3,0,0,2.5,4.5,0,0,1000.8,1014.7
2024-05-20T02:45:00+09:00,0.6,���쐼,1.2,�쐼,14.4,98.3,0,0,2.5,4.5,0,0,1000.9,1014.8
2024-05-20T02:46:00+09:00,0.6,���쐼,1.5,���쐼,14.4,98.3,0,0,2.5,4.5,0,0,1000.9,1014.8
2024-05-20T02:47:00+09:00,0.6,���쐼,1.5,���쐼,14.6,98.4,0,0,2.5,4.5,0,0,1000.9,1014.8
2024-05-20T02:48:00+09:00,0.5,���쐼,1.5,���쐼,14.6,98.5,0,0,2.5,4.5,0,0,1000.9,1014.8
2024-05-20T02:49:00+09:00,0.6,��,1.5,���쐼,14.7,98.5,0,0,2.5,4.5,0,0,1000.8,1014.6
2024-05-20T02:50:00+09:00,0.6,��,1.5,���쐼,14.6,98.4,0,0,2.5,4.5,0,0,1000.8,1014.6
2024-05-20T02:51:00+09:00,0.7,��,1.5,���쐼,14.6,98.3,0,0,2.5,4.5,0,0,1000.8,1014.6
2024-05-20T02:52:00+09:00,0.7,��,1.5,���쐼,14.6,98.4,0,0,2.5,4.5,0,0,1000.8,1014.6
2024-05-20T02:53:00+09:00,0.8,��,1.5,���쐼,14.5,98.2,0,0,2.5,4.5,0,0,1000.8,1014.7
2024-05-20T02:54:00+09:00,0.8,��,1.8,���k��,14.5,98.2,0,0,2.5,4.5,0,0,1000.8,1014.7
2024-05-20T02:55:00+09:00,0.9,��,1.8,���k��,14.5,98.3,0,0,2.5,4.5,0,0,1000.8,1014.7
2024-05-20T02:56:00+09:00,0.9,���k��,1.8,���k��,14.5,98.3,0,0,2.5,4.5,0,0,1000.8,1014.7
2024-05-20T02:57:00+09:00,1,���k��,1.8,���k��,14.6,98.4,0,0,2.5,4.5,0,0,1000.8,1014.6
2024-05-20T02:58:00+09:00,1.1,���k��,1.8,���k��,14.6,98.3,0,0,2.5,4.5,0,0,1000.8,1014.6
2024-05-20T02:59:00+09:00,1.2,���k��,1.8,���k��,14.6,98.4,0,0,2.5,4.5,0,0,1000.7,1014.5
2024-05-20T03:00:00+09:00,1.2,���k��,1.8,���k��,14.7,98.3,0,0,2.5,4.5,0,0,1000.7,1014.5
2024-05-20T03:01:00+09:00,1.1,���k��,1.8,���k��,14.7,98.3,0,0,2.5,4.5,0,0,1000.7,1014.5
2024-05-20T03:02:00+09:00,1.1,�k��,1.8,���k��,14.7,98.3,0,0,2.5,4.5,0,0,1000.7,1014.5
2024-05-20T03:03:00+09:00,1,�k��,1.8,���k��,14.8,98.4,0,0,2.5,4.5,0,0,1000.6,1014.4
2024-05-20T03:04:00+09:00,0.9,�k��,1.6,�k��,14.8,98.4,0,0,2.5,4.5,0,0,1000.7,1014.5
2024-05-20T03:05:00+09:00,0.9,�k��,1.6,�k��,14.6,98.3,0,0,2.5,4.5,0,0,1000.7,1014.5
2024-05-20T03:06:00+09:00,0.8,�k��,1.6,�k��,14.8,98.3,0,0,2.5,4.5,0,0,1000.7,1014.5
2024-05-20T03:07:00+09:00,0.8,�k��,1.6,�k��,14.8,98.3,0,0,2.5,4.5,0,0,1000.7,1014.5
2024-05-20T03:08:00+09:00,0.7,�k�k��,1.6,�k��,14.8,98.4,0,0,2.5,4.5,0,0,1000.6,1014.4
2024-05-20T03:09:00+09:00,0.7,�k�k��,1.5,�k��,14.8,98.3,0,0,2.5,4.5,0,0,1000.7,1014.5
2024-05-20T03:10:00+09:00,0.7,�k�k��,1.4,�k��,14.8,98.2,0,0,2.5,4.5,0,0,1000.7,1014.5
2024-05-20T03:11:00+09:00,0.8,�k�k��,1.5,�k��,14.7,98.2,0,0,2.5,4.5,0,0,1000.8,1014.6
2024-05-20T03:12:00+09:00,0.8,�k��,1.5,�k��,14.7,98.2,0,0,2.5,4.5,0,0,1000.8,1014.6
2024-05-20T03:13:00+09:00,0.9,�k��,1.5,�k��,14.8,98.2,0,0,2.5,4.5,0,0,1000.8,1014.6
2024-05-20T03:14:00+09:00,0.9,�k��,1.6,���k��,14.9,98.4,0,0,2.5,4.5,0,0,1000.8,1014.6
2024-05-20T03:15:00+09:00,1,�k��,1.7,�k��,15,98.4,0,0,2.5,4.5,0,0,1000.8,1014.6
2024-05-20T03:16:00+09:00,1,�k��,1.7,�k��,15,98.4,0,0,2.5,4.5,0,0,1000.8,1014.6
2024-05-20T03:17:00+09:00,1,�k��,1.7,�k��,14.9,98.2,0,0,2.5,4.5,0,0,1000.8,1014.6
2024-05-20T03:18:00+09:00,0.9,�k�k��,1.7,�k��,14.8,98.2,0,0,2.5,4.5,0,0,1000.8,1014.6
2024-05-20T03:19:00+09:00,0.9,�k�k��,1.7,�k��,14.7,98,0,0,2.5,4.5,0,0,1000.7,1014.5
2024-05-20T03:20:00+09:00,0.8,�k�k��,1.7,�k��,14.7,98.1,0,0,2.5,4.5,0,0,1000.7,1014.5
2024-05-20T03:21:00+09:00,0.8,�k�k��,1.7,�k��,14.8,98.3,0,0,2.5,4.5,0,0,1000.8,1014.6
2024-05-20T03:22:00+09:00,0.7,�k,1.7,�k��,14.8,98.3,0,0,2.5,4.5,0,0,1000.8,1014.6
2024-05-20T03:23:00+09:00,0.6,�k,1.7,�k��,14.6,98.1,0,0,2.5,4.5,0,0,1000.8,1014.6
2024-05-20T03:24:00+09:00,0.5,�k,1.7,�k��,14.6,98.2,0,0,2.5,4.5,0,0,1000.8,1014.6
2024-05-20T03:25:00+09:00,0.4,�k,1.4,�k��,14.7,98.2,0,0,2.5,4.5,0,0,1000.8,1014.6
2024-05-20T03:26:00+09:00,0.3,�k,1.2,�k��,14.5,98.2,0,0,2.5,4.5,0,0,1000.8,1014.7
2024-05-20T03:27:00+09:00,0.3,�k,0.8,�k�k��,14.5,98.2,0,0,2.5,4.5,0,0,1000.8,1014.7
2024-05-20T03:28:00+09:00,0.2,�É�,0.8,�k�k��,14.5,98.3,0,0,2.5,4.5,0,0,1000.8,1014.7
2024-05-20T03:29:00+09:00,0.2,�É�,0.8,�k�k��,14.4,98.2,0,0,2.5,4.5,0,0,1000.8,1014.7
2024-05-20T03:30:00+09:00,0.2,�É�,0.8,�k�k��,14.6,98.3,0,0,2.5,4.5,0,0,1000.8,1014.6
2024-05-20T03:31:00+09:00,0.2,�É�,0.6,��쐼,14.6,98.4,0,0,2.5,4.5,0,0,1000.8,1014.6
2024-05-20T03:32:00+09:00,0.2,�É�,0.6,��쐼,14.4,98.3,0,0,2.5,4.5,0,0,1000.8,1014.7
2024-05-20T03:33:00+09:00,0.2,�É�,0.8,��쐼,14.4,98.2,0,0,2.5,4.5,0,0,1000.9,1014.8
2024-05-20T03:34:00+09:00,0.2,�É�,0.8,��쐼,14.4,98.3,0,0,2.5,4.5,0,0,1000.9,1014.8
2024-05-20T03:35:00+09:00,0.2,�É�,0.8,��쐼,14.5,98.3,0,0,2.5,4.5,0,0,1000.9,1014.8
2024-05-20T03:36:00+09:00,0.2,�É�,0.8,��쐼,14.6,98.4,0,0,2.5,4.5,0,0,1000.9,1014.8
2024-05-20T03:37:00+09:00,0.2,�É�,0.8,��쐼,14.5,98.3,0,0,2.5,4.5,0,0,1000.9,1014.8
2024-05-20T03:38:00+09:00,0.2,�É�,0.8,��쐼,14.4,98.3,0,0,2.5,4.5,0,0,1000.9,1014.8
2024-05-20T03:39:00+09:00,0.2,�É�,0.8,��쐼,14.5,98.3,0,0,2.5,4.5,0,0,1000.9,1014.8
2024-05-20T03:40:00+09:00,0.3,�쐼,0.8,��쐼,14.4,98.2,0,0,2.5,4.5,0,0,1000.9,1014.8
2024-05-20T03:41:00+09:00,0.3,�쐼,0.8,��쐼,14.3,98.2,0,0,2.5,4.5,0,0,1000.9,1014.8
2024-05-20T03:42:00+09:00,0.4,�쐼,1.2,��,14.4,98.3,0,0,2.5,4.5,0,0,1001,1014.9
2024-05-20T03:43:00+09:00,0.4,�쐼,1.2,��,14.5,98.4,0,0,2.5,4.5,0,0,1001,1014.9
2024-05-20T03:44:00+09:00,0.5,�쐼,2.3,�쐼,14.3,98.3,0,0,2.5,4.5,0,0,1001,1014.9
2024-05-20T03:45:00+09:00,0.6,�쐼,2.3,�쐼,14.3,98.3,0,0,2.5,4.5,0,0,1001.1,1015
2024-05-20T03:46:00+09:00,0.7,�쐼,2.3,�쐼,14.3,98.4,0,0,2.5,4.5,0,0,1001,1014.9
2024-05-20T03:47:00+09:00,0.8,�쐼,2.3,�쐼,14.3,98.4,0,0,2.5,4.5,0,0,1001,1014.9
2024-05-20T03:48:00+09:00,0.8,�쐼,2.3,�쐼,14.4,98.5,0,0,2.5,4.5,0,0,1000.9,1014.8
2024-05-20T03:49:00+09:00,0.8,�쐼,2.3,�쐼,14.4,98.6,0,0,2.5,4.5,0,0,1001,1014.9
2024-05-20T03:50:00+09:00,0.8,�쐼,2.3,�쐼,14.4,98.5,0,0,2.5,4.5,0,0,1001,1014.9
2024-05-20T03:51:00+09:00,0.8,���쐼,2.3,�쐼,14.5,98.5,0,0,2.5,4.5,0,0,1001,1014.9
2024-05-20T03:52:00+09:00,0.7,���쐼,2.3,�쐼,14.4,98.5,0,0,2.5,4.5,0,0,1001.1,1015
2024-05-20T03:53:00+09:00,0.8,���쐼,2.3,�쐼,14.4,98.5,0,0,2.5,4.5,0,0,1001,1014.9
2024-05-20T03:54:00+09:00,0.7,��,1.8,���쐼,14.4,98.5,0,0,2.5,4.5,0,0,1001.1,1015
2024-05-20T03:55:00+09:00,0.7,��,1.8,���쐼,14.5,98.5,0,0,2.5,4.5,0,0,1001,1014.9
2024-05-20T03:56:00+09:00,0.6,��,1.8,���쐼,14.4,98.4,0,0,2.5,4.5,0,0,1001,1014.9
2024-05-20T03:57:00+09:00,0.5,��,1.5,��,14.3,98.3,0,0,2.5,4.5,0,0,1001,1014.9
2024-05-20T03:58:00+09:00,0.6,��,1.5,��,14.4,98.4,0,0,2.5,4.5,0,0,1001,1014.9
2024-05-20T03:59:00+09:00,0.6,��,1.5,��,14.5,98.6,0,0,2.5,4.5,0,0,1001,1014.9
2024-05-20T04:00:00+09:00,0.6,���쐼,1.5,��,14.4,98.4,0,0,2.5,4.5,0,0,1000.9,1014.8
2024-05-20T04:01:00+09:00,0.6,���쐼,1.5,��,14.5,98.5,0,0,2.5,4.5,0,0,1000.9,1014.8
2024-05-20T04:02:00+09:00,0.6,���쐼,1.5,��,14.5,98.5,0,0,2.5,4.5,0,0,1001,1014.9
2024-05-20T04:03:00+09:00,0.5,���쐼,1.5,��,14.4,98.5,0,0,2.5,4.5,0,0,1001,1014.9
2024-05-20T04:04:00+09:00,0.5,���쐼,1.4,���k��,14.2,98.3,0,0,2.5,4.5,0,0,1001,1014.9
2024-05-20T04:05:00+09:00,0.4,�쐼,1.1,���쐼,14.3,98.4,0,0,2.5,4.5,0,0,1001,1014.9
2024-05-20T04:06:00+09:00,0.4,�쐼,1.2,��쐼,14.2,98.3,0,0,2.5,4.5,0,0,1001,1014.9
2024-05-20T04:07:00+09:00,0.4,�쐼,1.2,��쐼,14.2,98.2,0,0,2.5,4.5,0,0,1001,1014.9
2024-05-20T04:08:00+09:00,0.4,�쐼,1.2,��쐼,14.2,98.3,0,0,2.5,4.5,0,0,1001,1014.9
2024-05-20T04:09:00+09:00,0.4,�쐼,1.2,��쐼,14.4,98.4,0,0,2.5,4.5,0,0,1001,1014.9
2024-05-20T04:10:00+09:00,0.4,�쐼,1.2,��쐼,14.4,98.5,0,0,2.5,4.5,0,0,1000.9,1014.8
2024-05-20T04:11:00+09:00,0.4,�쐼,1.2,��쐼,14.2,98.3,0,0,2.5,4.5,0,0,1000.9,1014.8
2024-05-20T04:12:00+09:00,0.4,�쐼,1.2,��쐼,14.3,98.3,0,0,2.5,4.5,0,0,1000.9,1014.8
2024-05-20T04:13:00+09:00,0.5,��쐼,1.2,��쐼,14.2,98.2,0,0,2.5,4.5,0,0,1000.9,1014.8
2024-05-20T04:14:00+09:00,0.5,��쐼,1.2,��쐼,14.3,98.4,0,0,2.5,4.5,0,0,1000.9,1014.8
2024-05-20T04:15:00+09:00,0.6,�쐼,1.2,��쐼,14.3,98.3,0,0,2.5,4.5,0,0,1000.9,1014.8
2024-05-20T04:16:00+09:00,0.6,�쐼,1.6,��쐼,14.1,98.2,0,0,2.5,4.5,0,0,1000.8,1014.7
2024-05-20T04:17:00+09:00,0.6,��쐼,1.6,��쐼,14.1,98.2,0,0,2.5,4.5,0,0,1000.8,1014.7
2024-05-20T04:18:00+09:00,0.6,��쐼,1.6,��쐼,14.1,98.3,0,0,2.5,4.5,0,0,1000.8,1014.7
2024-05-20T04:19:00+09:00,0.7,��쐼,1.6,��쐼,14.2,98.3,0,0,2.5,4.5,0,0,1000.9,1014.8
2024-05-20T04:20:00+09:00,0.8,��쐼,1.6,��쐼,14.2,98.4,0,0,2.5,4.5,0,0,1000.9,1014.8
2024-05-20T04:21:00+09:00,0.8,��쐼,1.6,��쐼,14.1,98.4,0,0,2.5,4.5,0,0,1000.8,1014.7
2024-05-20T04:22:00+09:00,,,,,,,,,,,,,,
2024-05-20T04:23:00+09:00,0.8,��쐼,1.6,��쐼,14,98.3,0,0,2.5,4.5,0,0,1000.8,1014.7
2024-05-20T04:24:00+09:00,0.8,��쐼,1.6,��쐼,14.1,98.4,0,0,2.5,4.5,0,0,1000.8,1014.7
2024-05-20T04:25:00+09:00,0.8,��쐼,1.6,��쐼,14.1,98.4,0,0,2.5,4.5,0,0,1000.9,1014.8
2024-05-20T04:26:00+09:00,0.7,��쐼,1.6,��쐼,14.3,98.5,0,0,2.5,4.5,0,0,1000.9,1014.8
2024-05-20T04:27:00+09:00,0.7,��쐼,1.6,��쐼,14.3,98.6,0,0,2.5,4.5,0,0,1000.9,1014.8
2024-05-20T04:28:00+09:00,0.7,��쐼,1.6,��쐼,14.2,98.5,0,0,2.5,4.5,0,0,1000.8,1014.7
2024-05-20T04:29:00+09:00,0.7,��쐼,1.6,��쐼,14.1,98.4,0,0,2.5,4.5,0,0,1000.8,1014.7
2024-05-20T04:30:00+09:00,0.7,��쐼,1.6,��쐼,14.1,98.4,0,0,2.5,4.5,0,0,1000.8,1014.7
2024-05-20T04:31:00+09:00,0.8,��쐼,2.4,��,14,98.4,0,0,2.5,4.5,0,0,1000.8,1014.7
2024-05-20T04:32:00+09:00,0.9,��쐼,2.4,��,14,98.4,0,0,2.5,4.5,0,0,1000.8,1014.7
2024-05-20T04:33:00+09:00,1,��쐼,2.4,��,13.9,98.4,0,0,2.5,4.5,0,0,1000.7,1014.6
2024-05-20T04:34:00+09:00,1,��쐼,2.4,��,13.9,98.3,0,0,2.5,4.5,0,0,1000.8,1014.7
2024-05-20T04:35:00+09:00,1,��쐼,2.4,��,14,98.5,0,0,2.5,4.5,0,0,1000.8,1014.7
2024-05-20T04:36:00+09:00,1.1,��쐼,2.4,��,14.1,98.5,0,0,2.5,4.5,0,0,1000.8,1014.7
2024-05-20T04:37:00+09:00,1.1,��쐼,2.4,��,14.3,98.7,0,0,2.5,4.5,0,0,1000.8,1014.7
2024-05-20T04:38:00+09:00,1,��쐼,2.4,��,14.1,98.6,0,0,2.5,4.5,0,0,1000.9,1014.8
2024-05-20T04:39:00+09:00,1,��쐼,2.4,��,14.1,98.5,0,0,2.5,4.5,0,0,1000.8,1014.7
2024-05-20T04:40:00+09:00,0.9,��쐼,2.4,��,14.1,98.5,0,0,2.5,4.5,0,0,1000.8,1014.7
2024-05-20T04:41:00+09:00,0.8,��쐼,2.2,��,14.2,98.5,0,0,2.5,4.5,0,0,1000.9,1014.8
2024-05-20T04:42:00+09:00,0.6,��쐼,2.2,��,14.3,98.6,0,0,2.5,4.5,0,0,1000.9,1014.8
2024-05-20T04:43:00+09:00,0.6,��쐼,1.8,��쓌,14,98.5,0,0,2.5,4.5,0,0,1000.9,1014.8
2024-05-20T04:44:00+09:00,0.6,��쐼,1.7,��,14,98.4,0,0,2.5,4.5,0,0,1000.8,1014.7
2024-05-20T04:45:00+09:00,0.6,��쐼,1.7,��,14,98.4,0,0,2.5,4.5,0,0,1000.8,1014.7
2024-05-20T04:46:00+09:00,0.7,��쐼,2.3,��쐼,13.9,98.4,0,0,2.5,4.5,0,0,1000.7,1014.6